DW4604 Weather Reports


Display with metric or nautical units.
time (UTC)temp
F
wind
direction
speed
MPH
gust
MPH
rain 1hr
in
rain 24hr
in
rain mn
in
humidity
%
barometer
mb
20170523122957 71 24 1.0 3.0 0.01 0.01 0.01 64 1014.4
20170523122457 70 8 2.0 6.0 0.00 0.00 0.00 60 1014.5
20170523121957 70 353 2.0 6.0 0.00 0.00 0.00 60 1014.5
20170523121457 70 345 4.0 11.0 0.00 0.00 0.00 61 1014.5
20170523120957 70 340 5.0 11.0 0.00 0.00 0.00 62 1014.6
20170523120457 70 333 6.0 11.0 0.00 0.00 0.00 61 1014.8
20170523115957 72 333 5.0 12.0 0.00 0.00 0.00 59 1014.9
20170523115457 75 325 3.0 12.0 0.00 0.00 0.00 53 1014.9
20170523114957 76 256 2.0 8.0 0.00 0.00 0.00 48 1014.9
20170523114458 76 245 1.0 8.0 0.00 0.00 0.00 49 1014.9
20170523113957 77 232 2.0 7.0 0.00 0.00 0.00 47 1014.9
20170523113457 76 231 4.0 10.0 0.00 0.00 0.00 47 1014.9
20170523112957 76 249 3.0 10.0 0.00 0.00 0.00 49 1014.8
20170523112457 76 297 1.0 5.0 0.00 0.00 0.00 50 1015.0
20170523111957 76 306 1.0 6.0 0.00 0.00 0.00 50 1015.1
20170523111458 75 313 2.0 6.0 0.00 0.00 0.00 51 1015.1
20170523110958 75 309 2.0 5.0 0.00 0.00 0.00 52 1015.2
20170523110458 75 296 2.0 6.0 0.00 0.00 0.00 51 1015.3
20170523105958 75 300 2.0 7.0 0.00 0.00 0.00 52 1015.2
20170523105457 74 308 3.0 7.0 0.00 0.00 0.00 53 1015.3
20170523104957 74 308 2.0 6.0 0.00 0.00 0.00 51 1015.4
20170523104457 76 301 1.0 5.0 0.00 0.00 0.00 50 1015.3
20170523103957 76 266 1.0 5.0 0.00 0.00 0.00 51 1015.4
20170523103457 76 237 2.0 8.0 0.00 0.00 0.00 50 1015.4
20170523102958 75 233 3.0 8.0 0.00 0.00 0.00 50 1015.4
20170523102458 76 237 3.0 7.0 0.00 0.00 0.00 48 1015.4
20170523101958 75 249 2.0 7.0 0.00 0.00 0.00 48 1015.5
20170523101458 76 259 2.0 6.0 0.00 0.00 0.00 48 1015.5
20170523100958 76 261 2.0 5.0 0.00 0.00 0.00 48 1015.5
20170523100458 76 252 2.0 6.0 0.00 0.00 0.00 49 1015.5
20170523095958 75 260 2.0 6.0 0.00 0.00 0.00 49 1015.6
20170523095458 75 255 2.0 6.0 0.00 0.00 0.00 50 1015.6
20170523094958 75 238 2.0 6.0 0.00 0.00 0.00 50 1015.6
20170523094458 75 241 1.0 5.0 0.00 0.00 0.00 49 1015.6
20170523093958 75 206 1.0 4.0 0.00 0.00 0.00 50 1015.7
20170523093458 74 185 1.0 4.0 0.00 0.00 0.00 50 1015.8
20170523092958 74 193 1.0 2.0 0.00 0.00 0.00 51 1015.9
20170523092458 73 183 1.0 3.0 0.00 0.00 0.00 51 1016.0
20170523091958 73 179 1.0 4.0 0.00 0.00 0.00 51 1016.0
20170523091458 73 189 1.0 4.0 0.00 0.00 0.00 52 1016.0
20170523090958 73 192 2.0 4.0 0.00 0.00 0.00 51 1016.0
20170523090458 74 182 2.0 5.0 0.00 0.00 0.00 51 1016.1
20170523085958 74 194 2.0 5.0 0.00 0.00 0.00 49 1016.0
20170523085458 74 204 1.0 5.0 0.00 0.00 0.00 51 1016.0
20170523084958 74 208 1.0 5.0 0.00 0.00 0.00 51 1016.0
20170523084458 74 219 2.0 5.0 0.00 0.00 0.00 53 1016.0
20170523083958 74 202 1.0 6.0 0.00 0.00 0.00 52 1016.1
20170523083458 74 177 1.0 6.0 0.00 0.00 0.00 52 1016.0
20170523082958 74 154 0.0 4.0 0.00 0.00 0.00 53 1016.0
20170523082458 73 173 1.0 3.0 0.00 0.00 0.00 55 1016.1
20170523081958 73 198 1.0 3.0 0.00 0.00 0.00 54 1016.1
20170523081458 73 238 0.0 3.0 0.00 0.00 0.00 55 1016.1
20170523080958 72 242 1.0 2.0 0.00 0.00 0.00 56 1016.2
20170523080458 72 244 1.0 3.0 0.00 0.00 0.00 58 1016.2
20170523075959 71 237 1.0 6.0 0.00 0.00 0.00 57 1016.2
20170523075458 71 234 2.0 6.0 0.00 0.00 0.00 58 1016.2
20170523074958 71 233 1.0 6.0 0.00 0.00 0.00 58 1016.3
20170523074459 72 230 0.0 5.0 0.00 0.00 0.00 56 1016.3
20170523073959 72 209 1.0 4.0 0.00 0.00 0.00 58 1016.3
20170523073458 71 190 1.0 4.0 0.00 0.00 0.00 57 1016.2
20170523072958 71 86 1.0 4.0 0.00 0.00 0.00 59 1016.3
20170523072458 70 89 1.0 4.0 0.00 0.00 0.00 59 1016.3
20170523071959 70 156 1.0 4.0 0.00 0.00 0.00 62 1016.3
20170523071459 70 128 1.0 4.0 0.00 0.00 0.00 64 1016.3
20170523070959 69 118 1.0 4.0 0.00 0.00 0.00 65 1016.3
20170523070459 69 210 0.0 2.0 0.00 0.00 0.00 65 1016.3
20170523065959 69 221 0.0 1.0 0.00 0.00 0.00 67 1016.3
20170523065458 68 233 0.0 2.0 0.00 0.00 0.00 67 1016.3
20170523064959 67 227 1.0 3.0 0.00 0.00 0.00 68 1016.4
20170523064459 67 220 1.0 3.0 0.00 0.00 0.00 68 1016.4
20170523063959 67 220 1.0 3.0 0.00 0.00 0.00 68 1016.4
20170523063459 67 229 1.0 4.0 0.00 0.00 0.00 68 1016.4
20170523062959 67 231 0.0 4.0 0.00 0.00 0.00 69 1016.4
20170523062459 67 172 0.0 2.0 0.00 0.00 0.00 71 1016.3
20170523061959 66 182 1.0 3.0 0.00 0.00 0.00 71 1016.4
20170523061459 66 172 1.0 3.0 0.00 0.00 0.00 70 1016.4
20170523060959 65 174 1.0 3.0 0.00 0.00 0.00 72 1016.4
20170523060459 65 193 1.0 4.0 0.00 0.00 0.00 72 1016.4
20170523055959 65 206 1.0 4.0 0.00 0.00 0.00 71 1016.4
20170523055459 65 192 1.0 2.0 0.00 0.00 0.00 72 1016.3
20170523054959 64 109 1.0 2.0 0.00 0.00 0.00 74 1016.3
20170523054459 63 80 1.0 3.0 0.00 0.00 0.00 74 1016.3
20170523053959 64 83 0.0 3.0 0.00 0.00 0.00 73 1016.2
20170523053459 64 191 1.0 2.0 0.00 0.00 0.00 73 1016.2
20170523052959 63 198 1.0 3.0 0.00 0.00 0.00 73 1016.3
20170523052459 64 200 0.0 3.0 0.00 0.00 0.00 73 1016.2
20170523051959 64 188 0.0 3.0 0.00 0.00 0.00 72 1016.2
20170523051459 64 88 0.0 1.0 0.00 0.00 0.00 74 1016.2
20170523050959 63 61 0.0 1.0 0.00 0.00 0.00 75 1016.2
20170523050459 62 40 0.0 1.0 0.00 0.00 0.00 78 1016.2
20170523045959 61 40 0.0 1.0 0.00 0.00 0.00 80 1016.2
20170523045459 60 0 0.0 0.0 0.00 0.00 0.00 82 1016.2
20170523044959 60 0 0.0 0.0 0.00 0.00 0.00 81 1016.2
20170523044459 60 7 0.0 1.0 0.00 0.00 0.00 83 1016.2
20170523043959 59 6 0.0 1.0 0.00 0.00 0.00 84 1016.2
20170523043459 58 7 0.0 1.0 0.00 0.00 0.00 87 1016.2
20170523042959 56 7 0.0 1.0 0.00 0.00 0.00 88 1016.2
20170523042459 56 7 0.0 1.0 0.00 0.00 0.00 90 1016.3
20170523041959 55 7 0.0 1.0 0.00 0.00 0.00 91 1016.3
20170523041459 54 6 0.0 1.0 0.00 0.00 0.00 92 1016.3
20170523040959 53 6 0.0 1.0 0.00 0.00 0.00 92 1016.2
20170523040459 53 6 0.0 1.0 0.00 0.00 0.00 92 1016.3
20170523035959 52 7 0.0 1.0 0.00 0.00 0.00 93 1016.2
20170523035459 52 7 0.0 1.0 0.00 0.00 0.00 93 1016.2
20170523034959 52 7 0.0 1.0 0.00 0.00 0.00 93 1016.3
20170523034459 51 7 0.0 1.0 0.00 0.00 0.00 93 1016.2
20170523033959 51 0 0.0 0.0 0.00 0.00 0.00 93 1016.2
20170523033459 51 0 0.0 0.0 0.00 0.00 0.00 93 1016.1
20170523032959 51 0 0.0 0.0 0.00 0.00 0.00 93 1016.2
20170523032459 51 0 0.0 0.0 0.00 0.00 0.00 93 1016.1
20170523031959 51 0 0.0 0.0 0.00 0.00 0.00 93 1016.2
20170523031459 51 0 0.0 0.0 0.00 0.00 0.00 93 1016.2
20170523031000 51 0 0.0 0.0 0.00 0.00 0.00 93 1016.2
20170523030500 51 0 0.0 0.0 0.00 0.00 0.00 92 1016.2
20170523030000 51 0 0.0 0.0 0.00 0.00 0.00 92 1016.2
20170523025500 51 0 0.0 0.0 0.00 0.00 0.00 92 1016.2
20170523025000 51 0 0.0 0.0 0.00 0.00 0.00 92 1016.2
20170523024500 51 0 0.0 0.0 0.00 0.00 0.00 92 1016.2
20170523024000 51 0 0.0 0.0 0.00 0.00 0.00 92 1016.2
20170523023500 51 0 0.0 0.0 0.00 0.00 0.00 92 1016.1
20170523023000 51 0 0.0 0.0 0.00 0.00 0.00 92 1016.1
20170523022500 51 0 0.0 0.0 0.00 0.00 0.00 92 1016.2
20170523022000 51 0 0.0 0.0 0.00 0.00 0.00 92 1016.1
20170523021500 51 0 0.0 0.0 0.00 0.00 0.00 91 1016.2
20170523021000 51 0 0.0 0.0 0.00 0.00 0.00 90 1016.2
20170523020500 52 0 0.0 0.0 0.00 0.00 0.00 90 1016.2
20170523020000 52 0 0.0 0.0 0.00 0.00 0.00 90 1016.2
20170523015500 52 0 0.0 0.0 0.00 0.00 0.00 90 1016.2
20170523015000 52 0 0.0 0.0 0.00 0.00 0.00 90 1016.2
20170523014500 52 0 0.0 0.0 0.00 0.00 0.00 90 1016.3
20170523014000 53 0 0.0 0.0 0.00 0.00 0.00 90 1016.3
20170523013500 53 0 0.0 0.0 0.00 0.00 0.00 89 1016.3
20170523013000 53 0 0.0 0.0 0.00 0.00 0.00 89 1016.3
20170523012500 53 0 0.0 0.0 0.00 0.00 0.00 89 1016.3
20170523012000 53 0 0.0 0.0 0.00 0.00 0.00 89 1016.3
20170523011500 53 0 0.0 0.0 0.00 0.00 0.00 89 1016.3
20170523011000 53 0 0.0 0.0 0.00 0.00 0.00 89 1016.4
20170523010459 53 0 0.0 0.0 0.00 0.00 0.00 88 1016.4
20170523005959 53 7 0.0 1.0 0.00 0.00 0.00 88 1016.4
20170523005459 53 7 0.0 1.0 0.00 0.00 0.00 88 1016.5
20170523004959 53 7 0.0 1.0 0.00 0.00 0.00 88 1016.5
20170523004500 53 7 0.0 1.0 0.00 0.00 0.00 88 1016.5
20170523004000 54 7 0.0 1.0 0.00 0.00 0.00 88 1016.5
20170523003500 53 7 0.0 1.0 0.00 0.00 0.00 88 1016.5
20170523003000 54 0 0.0 0.0 0.00 0.00 0.00 88 1016.5
20170523002500 54 14 0.0 1.0 0.00 0.00 0.00 87 1016.5
20170523002000 54 17 0.0 2.0 0.00 0.00 0.00 87 1016.5
20170523001500 54 18 1.0 2.0 0.00 0.00 0.00 87 1016.5
20170523001000 54 24 0.0 2.0 0.00 0.00 0.00 87 1016.4
20170523000500 54 36 0.0 2.0 0.00 0.00 0.00 87 1016.4
20170523000000 54 37 0.0 1.0 0.00 0.00 0.00 87 1016.4
20170522235500 54 37 0.0 1.0 0.00 0.00 0.00 87 1016.4
20170522235000 54 37 0.0 1.0 0.00 0.00 0.00 86 1016.5
20170522234500 55 0 0.0 0.0 0.00 0.00 0.00 87 1016.5
20170522234000 55 0 0.0 0.0 0.00 0.00 0.00 87 1016.5
20170522233500 55 0 0.0 0.0 0.00 0.00 0.00 87 1016.6
20170522233000 55 0 0.0 0.0 0.00 0.00 0.00 86 1016.6
20170522232500 54 0 0.0 0.0 0.00 0.00 0.00 86 1016.7
20170522232000 55 0 0.0 0.0 0.00 0.00 0.00 86 1016.8
20170522231500 55 0 0.0 0.0 0.00 0.00 0.00 85 1016.8
20170522231001 55 0 0.0 0.0 0.00 0.00 0.00 85 1016.8
20170522230501 56 0 0.0 0.0 0.00 0.00 0.00 84 1016.8
20170522230001 56 0 0.0 0.0 0.00 0.00 0.00 83 1016.8
20170522225501 56 0 0.0 0.0 0.00 0.00 0.00 83 1016.7
20170522225001 56 0 0.0 0.0 0.00 0.00 0.00 83 1016.7
20170522224501 56 0 0.0 0.0 0.00 0.00 0.00 83 1016.8
20170522224001 56 0 0.0 0.0 0.00 0.00 0.00 82 1016.7
20170522223500 56 0 0.0 0.0 0.00 0.00 0.00 82 1016.8
20170522223000 56 0 0.0 0.0 0.00 0.00 0.00 82 1016.7
20170522222500 56 0 0.0 0.0 0.00 0.00 0.00 83 1016.8
20170522222000 56 0 0.0 0.0 0.00 0.00 0.00 82 1016.8
20170522221500 57 0 0.0 0.0 0.00 0.00 0.00 81 1016.7
20170522221000 57 37 0.0 1.0 0.00 0.00 0.00 80 1016.7
20170522220500 57 37 0.0 1.0 0.00 0.00 0.00 80 1016.7
20170522220001 58 0 0.0 0.0 0.00 0.00 0.00 79 1016.7
20170522215501 58 37 0.0 1.0 0.00 0.00 0.00 78 1016.7
20170522215001 59 19 0.0 2.0 0.00 0.00 0.00 76 1016.7
20170522214501 59 46 0.0 2.0 0.00 0.00 0.00 75 1016.8
20170522214001 59 44 0.0 2.0 0.00 0.00 0.00 75 1016.8
20170522213501 59 41 0.0 2.0 0.00 0.00 0.00 76 1016.9
20170522213001 59 42 0.0 2.0 0.00 0.00 0.00 75 1016.9
20170522212501 60 41 0.0 2.0 0.00 0.00 0.00 75 1016.9
20170522212000 60 54 0.0 1.0 0.00 0.00 0.00 74 1017.0
20170522211500 60 57 0.0 2.0 0.00 0.00 0.00 74 1017.1
20170522211000 60 60 0.0 2.0 0.00 0.00 0.00 74 1017.1
20170522210500 60 49 0.0 2.0 0.00 0.00 0.00 73 1017.0
20170522210000 60 47 0.0 3.0 0.00 0.00 0.00 73 1017.0
20170522205500 60 49 0.0 3.0 0.00 0.00 0.00 72 1017.0
20170522205000 61 45 0.0 2.0 0.00 0.00 0.00 72 1017.0
20170522204500 61 42 0.0 2.0 0.00 0.00 0.00 72 1016.9
20170522204000 61 47 0.0 2.0 0.00 0.00 0.00 72 1016.9
20170522203500 61 52 0.0 2.0 0.00 0.00 0.00 72 1016.9
20170522203001 61 52 1.0 2.0 0.00 0.00 0.00 71 1016.9
20170522202501 61 53 0.0 2.0 0.00 0.00 0.00 71 1016.9
20170522202001 62 58 0.0 2.0 0.00 0.00 0.00 71 1016.9
20170522201501 62 61 0.0 2.0 0.00 0.00 0.00 71 1017.0
20170522201001 62 61 0.0 2.0 0.00 0.00 0.00 71 1017.0
20170522200501 62 60 0.0 2.0 0.00 0.00 0.00 70 1017.0
20170522200001 62 57 0.0 2.0 0.00 0.00 0.00 70 1017.0
20170522195501 62 48 0.0 2.0 0.00 0.00 0.00 70 1017.0
20170522195001 63 44 0.0 2.0 0.00 0.00 0.00 70 1017.1
20170522194501 63 52 0.0 3.0 0.00 0.00 0.00 70 1017.1
20170522194001 63 63 0.0 3.0 0.00 0.00 0.00 69 1017.2
20170522193501 63 63 0.0 3.0 0.00 0.00 0.00 70 1017.1
20170522193001 63 51 0.0 2.0 0.00 0.00 0.00 70 1017.1
20170522192501 62 37 0.0 3.0 0.00 0.00 0.00 71 1017.1
20170522192001 62 33 0.0 3.0 0.00 0.00 0.00 72 1017.1
20170522191501 62 30 0.0 2.0 0.00 0.00 0.00 73 1017.0
20170522191001 62 39 0.0 1.0 0.00 0.00 0.00 74 1017.0
20170522190501 62 39 0.0 1.0 0.00 0.00 0.00 73 1017.0
20170522190001 63 20 0.0 1.0 0.00 0.00 0.00 73 1016.9
20170522185501 63 9 0.0 1.0 0.00 0.00 0.00 72 1016.9
20170522185001 63 9 0.0 1.0 0.00 0.00 0.00 71 1016.9
20170522184501 64 9 0.0 1.0 0.00 0.00 0.00 70 1016.9
20170522184001 64 0 0.0 0.0 0.00 0.00 0.00 69 1016.8
20170522183501 65 0 0.0 0.0 0.00 0.00 0.00 68 1016.8
20170522183001 65 0 0.0 0.0 0.00 0.00 0.00 66 1016.8
20170522182501 65 0 0.0 0.0 0.00 0.00 0.00 65 1016.8
20170522182001 66 9 0.0 1.0 0.00 0.00 0.00 64 1016.9
20170522181501 66 8 0.0 1.0 0.00 0.00 0.00 63 1016.9
20170522181001 67 24 0.0 2.0 0.00 0.00 0.00 62 1016.9
20170522180501 67 19 0.0 2.0 0.00 0.00 0.00 61 1016.9
20170522180001 67 7 0.0 2.0 0.00 0.00 0.00 60 1016.8
20170522175501 68 17 1.0 3.0 0.00 0.00 0.00 60 1016.8
20170522175001 68 19 0.0 3.0 0.00 0.00 0.00 59 1016.8
20170522174501 68 8 0.0 1.0 0.00 0.00 0.00 58 1016.8
20170522174001 69 12 0.0 2.0 0.00 0.00 0.00 58 1016.8
20170522173501 69 11 0.0 2.0 0.00 0.00 0.00 57 1016.8
20170522173001 69 14 1.0 3.0 0.00 0.00 0.00 57 1016.9
20170522172501 69 19 1.0 3.0 0.00 0.00 0.00 57 1016.9
20170522172001 69 13 1.0 4.0 0.00 0.00 0.00 56 1016.9
20170522171501 69 18 1.0 4.0 0.00 0.00 0.00 55 1016.9
20170522171001 69 14 1.0 4.0 0.00 0.00 0.00 55 1016.8
20170522170501 69 7 2.0 6.0 0.00 0.00 0.00 55 1016.9
20170522170001 69 13 2.0 6.0 0.00 0.00 0.00 55 1016.8
20170522165501 69 14 1.0 5.0 0.00 0.00 0.00 55 1016.9
20170522165001 70 8 1.0 4.0 0.00 0.00 0.00 55 1016.9
20170522164501 70 16 2.0 6.0 0.00 0.00 0.00 54 1016.9
20170522164001 70 9 2.0 6.0 0.00 0.00 0.00 53 1017.0
20170522163501 70 4 1.0 6.0 0.00 0.00 0.00 53 1017.1
20170522163002 70 35 1.0 4.0 0.00 0.00 0.00 54 1017.1
20170522162502 70 32 2.0 5.0 0.00 0.00 0.00 54 1017.2
20170522162002 71 21 2.0 5.0 0.00 0.00 0.00 53 1017.2
20170522161502 71 18 1.0 4.0 0.00 0.00 0.00 53 1017.2
20170522161002 71 19 1.0 4.0 0.00 0.00 0.00 53 1017.2
20170522160502 70 20 1.0 4.0 0.00 0.00 0.00 53 1017.2
20170522160002 70 23 1.0 6.0 0.00 0.00 0.00 53 1017.3
20170522155502 70 21 1.0 6.0 0.00 0.00 0.00 52 1017.2
20170522155001 70 15 2.0 5.0 0.00 0.00 0.00 53 1017.3
20170522154501 70 10 2.0 5.0 0.00 0.00 0.00 53 1017.3
20170522154001 70 14 2.0 5.0 0.00 0.00 0.00 53 1017.3
20170522153501 70 15 2.0 5.0 0.00 0.00 0.00 53 1017.4
20170522153002 70 7 2.0 5.0 0.00 0.00 0.00 52 1017.4
20170522152502 70 358 2.0 4.0 0.00 0.00 0.00 54 1017.5
20170522152002 71 343 1.0 4.0 0.00 0.00 0.00 54 1017.6
20170522151502 70 340 1.0 4.0 0.00 0.00 0.00 52 1017.5
20170522151002 71 342 1.0 4.0 0.00 0.00 0.00 53 1017.6
20170522150502 71 351 2.0 5.0 0.00 0.00 0.00 53 1017.6
20170522150002 71 4 2.0 5.0 0.00 0.00 0.00 54 1017.7
20170522145501 71 16 2.0 5.0 0.00 0.00 0.00 53 1017.7
20170522145001 71 19 2.0 12.0 0.00 0.00 0.00 53 1017.7
20170522144501 71 4 1.0 12.0 0.00 0.00 0.00 53 1017.8
20170522144001 72 297 0.0 2.0 0.00 0.00 0.00 52 1017.8
20170522143502 72 262 0.0 1.0 0.00 0.00 0.00 52 1017.8
20170522143002 72 270 0.0 1.0 0.00 0.00 0.00 52 1017.9
20170522142502 71 311 0.0 1.0 0.00 0.00 0.00 53 1017.9
20170522142002 71 328 0.0 2.0 0.00 0.00 0.00 52 1017.9
20170522141502 71 28 1.0 4.0 0.00 0.00 0.00 52 1018.0
20170522141002 71 58 2.0 5.0 0.00 0.00 0.00 54 1018.1
20170522140502 71 40 3.0 7.0 0.00 0.00 0.00 52 1018.1
20170522140002 71 23 2.0 7.0 0.00 0.00 0.00 52 1018.1
20170522135502 72 37 1.0 6.0 0.00 0.00 0.00 52 1018.1
20170522135002 72 45 1.0 5.0 0.00 0.00 0.00 51 1018.1
20170522134502 72 356 1.0 4.0 0.00 0.00 0.00 52 1018.1
20170522134002 71 5 1.0 4.0 0.00 0.00 0.00 53 1018.2
20170522133502 71 4 1.0 5.0 0.00 0.00 0.00 55 1018.3
20170522133002 70 25 3.0 7.0 0.00 0.00 0.00 55 1018.3
20170522132502 70 44 4.0 9.0 0.00 0.00 0.00 55 1018.3
20170522132002 71 27 3.0 9.0 0.00 0.00 0.00 54 1018.4
20170522131502 71 357 2.0 7.0 0.00 0.00 0.00 53 1018.4
20170522131002 71 54 1.0 4.0 0.00 0.00 0.00 53 1018.4
20170522130502 71 80 1.0 7.0 0.00 0.00 0.00 52 1018.5
20170522130002 71 68 2.0 7.0 0.00 0.00 0.00 54 1018.5
20170522125502 71 30 2.0 8.0 0.00 0.00 0.00 54 1018.5
20170522125002 71 25 3.0 9.0 0.00 0.00 0.00 56 1018.6
20170522124502 71 33 2.0 9.0 0.00 0.00 0.00 54 1018.6
20170522124002 71 9 1.0 5.0 0.00 0.00 0.00 55 1018.7
20170522123503 71 356 2.0 9.0 0.00 0.00 0.00 55 1018.7